Weather History for Burns, OR

Change the Weather History Date:

Monday, March 25, 2013

  Actual Average Record
Temperature  
Mean Temperature 43 °F 40 °F  
Max Temperature 53 °F 52 °F 74 °F (1960)
Min Temperature 33 °F 27 °F 13 °F (1996)
Degree Days  
Heating Degree Days 22 25  
Month to date heating degree days 711 709  
Since 1 July heating degree days 6068 6237  
Cooling Degree Days 0 0  
Month to date cooling degree days 0 0  
Year to date cooling degree days 0 0  
Moisture  
Dew Point 21 °F    
Average Humidity 48    
Maximum Humidity 64    
Minimum Humidity 32    
Precipitation  
Precipitation 0.00 in 0.04 in 0.72 in (1971)
Month to date precipitation 0.18 0.90  
Year to date precipitation 0.92 3.11  
Sea Level Pressure  
Sea Level Pressure 30.00 in    
Wind  
Wind Speed 10 mph (NE)    
Max Wind Speed 21 mph    
Max Gust Speed 26 mph    
Visibility 10 miles    
Events      
T = Trace of Precipitation, MM = Missing Value Source: NWS Daily Summary

Daily Weather History Graph

Daily Weather History Graph

Search for Another Location

Airport:

Trip Planner

Search our weather history database for the weather conditions in past years. The results will help you decide how hot, cold, wet, or windy it might be!

Date:

Astronomy

Mar. 25, 2013 Rise Set
Actual Time 6:49 AM PDT 7:14 PM PDT
Civil Twilight 6:20 AM PDT 7:43 PM PDT
Nautical Twilight 5:46 AM PDT 8:17 PM PDT
Astronomical Twilight 5:12 AM PDT 8:52 PM PDT
Moon 5:50 PM PDT (3/25) 5:37 AM PDT (3/25)
Length of Visible Light 13h 22m
Length of Day
12h 25m
Waxing Gibbous, 97% of the Moon is Illuminated
Mar 25
Waxing Gibbous
Mar 27
Full
Apr 2
Last Quarter
Apr 10
New
Apr 18
First Quarter

Hourly Weather History & Observations

Time (PDT) Temp. Windchill Dew Point Humidity Pressure Visibility Wind Dir Wind Speed Gust Speed Precip Events Conditions
12:53 AM 35.1 °F 28.6 °F 16.0 °F 46% 30.10 in 10.0 mi NNE 8.1 mph - N/A   Overcast
1:53 AM 36.0 °F 29.6 °F 16.0 °F 44% 30.09 in 10.0 mi NNE 8.1 mph - N/A   Overcast
2:53 AM 35.1 °F 29.3 °F 17.1 °F 48% 30.07 in 10.0 mi NNE 6.9 mph - N/A   Overcast
3:53 AM 35.1 °F 30.1 °F 17.1 °F 48% 30.07 in 10.0 mi NE 5.8 mph - N/A   Overcast
4:53 AM 34.0 °F 28.0 °F 18.0 °F 52% 30.07 in 10.0 mi NE 6.9 mph - N/A   Overcast
5:53 AM 34.0 °F 29.8 °F 18.0 °F 52% 30.07 in 10.0 mi NNE 4.6 mph - N/A   Overcast
6:53 AM 33.1 °F - 17.1 °F 52% 30.08 in 10.0 mi Calm Calm - N/A   Overcast
7:53 AM 36.0 °F 33.3 °F 17.1 °F 46% 30.08 in 10.0 mi NE 3.5 mph - N/A   Overcast
8:53 AM 39.9 °F 32.5 °F 16.0 °F 38% 30.07 in 10.0 mi NE 12.7 mph - N/A   Mostly Cloudy
9:53 AM 42.1 °F 34.9 °F 18.0 °F 38% 30.07 in 10.0 mi NE 13.8 mph - N/A   Overcast
10:53 AM 45.0 °F 38.5 °F 19.9 °F 37% 30.06 in 10.0 mi NE 13.8 mph 18.4 mph N/A   Overcast
11:53 AM 48.0 °F - 21.0 °F 34% 30.04 in 10.0 mi NE 16.1 mph 20.7 mph N/A   Overcast
12:53 PM 51.1 °F - 23.0 °F 33% 30.02 in 10.0 mi ENE 12.7 mph 20.7 mph N/A   Clear
1:53 PM 53.1 °F - 24.1 °F 32% 29.98 in 10.0 mi NE 10.4 mph 21.9 mph N/A   Clear
2:53 PM 52.0 °F - 25.0 °F 35% 29.95 in 10.0 mi ENE 13.8 mph 19.6 mph N/A   Scattered Clouds
3:53 PM 52.0 °F - 25.0 °F 35% 29.93 in 10.0 mi NNE 17.3 mph - N/A   Scattered Clouds
4:53 PM 51.1 °F - 24.1 °F 35% 29.92 in 10.0 mi NNE 18.4 mph - N/A   Partly Cloudy
5:53 PM 48.0 °F - 23.0 °F 37% 29.92 in 10.0 mi NE 13.8 mph 23.0 mph N/A   Clear
6:53 PM 46.0 °F 39.9 °F 23.0 °F 40% 29.92 in 10.0 mi NNE 13.8 mph - N/A   Clear
7:53 PM 43.0 °F 37.7 °F 21.9 °F 43% 29.93 in 10.0 mi NE 9.2 mph - N/A   Overcast
8:53 PM 43.0 °F 40.3 °F 21.9 °F 43% 29.94 in 10.0 mi NNW 4.6 mph - N/A   Overcast
9:53 PM 43.0 °F 36.8 °F 23.0 °F 45% 29.93 in 10.0 mi North 11.5 mph - N/A   Overcast
10:53 PM 42.1 °F 35.2 °F 26.1 °F 53% 29.91 in 10.0 mi NE 12.7 mph - N/A   Overcast
11:53 PM 39.9 °F 35.1 °F 28.9 °F 65% 29.90 in 10.0 mi NE 6.9 mph - N/A   Partly Cloudy